This is the latest recevied weather packets stored in our database for station/object EA1CZ-10. If no packets are shown the sender has not sent any weather packets the latest 10 day(s).
| Time | Temp. | Humidity | Pressure | Rain* | Wind** | Luminosity | Snow |
|---|---|---|---|---|---|---|---|
| 1777872905 | 6.67° C | 70% | 1026.9 hPa | - | - | - | - |
| 1777871105 | 6.67° C | 70% | 1026.7 hPa | - | - | - | - |
| 1777869305 | 6.67° C | 70% | 1026.8 hPa | - | - | - | - |
| 1777867505 | 7.22° C | 70% | 1026.9 hPa | - | - | - | - |
| 1777865705 | 7.22° C | 70% | 1026.9 hPa | - | - | - | - |
| 1777863905 | 7.22° C | 70% | 1027.1 hPa | - | - | - | - |
| 1777862105 | 6.67° C | 70% | 1027.1 hPa | - | - | - | - |
| 1777860305 | 7.22° C | 70% | 1027.1 hPa | - | - | - | - |
| 1777858505 | 7.22° C | 70% | 1027 hPa | - | - | - | - |
| 1777856705 | 7.22° C | 70% | 1027.2 hPa | - | - | - | - |
| 1777854905 | 7.22° C | 70% | 1027.3 hPa | - | - | - | - |
| 1777853104 | 7.22° C | 70% | 1027.5 hPa | - | - | - | - |
| 1777851304 | 7.22° C | 70% | 1027.5 hPa | - | - | - | - |
| 1777849504 | 7.78° C | 70% | 1027.6 hPa | - | - | - | - |
| 1777847704 | 7.78° C | 70% | 1027.6 hPa | - | - | - | - |
| 1777845904 | 7.22° C | 70% | 1027.7 hPa | - | - | - | - |
| 1777844104 | 4.44° C | 70% | 1027.7 hPa | - | - | - | - |
| 1777842304 | 4.44° C | 70% | 1027.7 hPa | - | - | - | - |
| 1777840504 | 6.67° C | 70% | 1027.5 hPa | - | - | - | - |
| 1777838704 | 8.89° C | 69% | 1027.2 hPa | - | - | - | - |
| 1777836904 | 8.89° C | 69% | 1027 hPa | - | - | - | - |
| 1777835104 | 7.78° C | 70% | 1026.6 hPa | - | - | - | - |
| 1777833303 | 7.22° C | 69% | 1026.5 hPa | - | - | - | - |
| 1777831503 | 10° C | 69% | 1026.5 hPa | - | - | - | - |
| 1777829703 | 8.33° C | 69% | 1026.4 hPa | - | - | - | - |
* Rain since midnight (hover to see other rain measurements)
** Current wind speed in m/s (hover to see current wind gust speed)